Location: Newark
(47.1042°N, 8.6744°E)
Time: 09:10:18
(UTC+00:00)

N. Korean satellite - Pass Details

Date: 19 October 2019
Orbit: 456 x 506 km, 97.2° (Epoch: 20 November)

Event Time Altitude Azimuth Distance (km) Brightness Sun altitude
Rises 05:11:44 0° 16° (NNE) 2,551 10.3 -7.0°
Reaches altitude 10° 05:13:49 10° 20° (NNE) 1,675 9.5 -6.6°
Maximum altitude 05:17:22 58° 100° (E) 578 7.4 -6.0°
Drops below altitude 10° 05:20:57 10° 181° (S) 1,687 9.4 -5.4°
Sets 05:23:04 0° 185° (S) 2,572 10.3 -5.1°
